Regional Weather Roundup
Issued by NWS

Home | Current Version | Previous Version | Graphics & Text | Print | Product List | Glossary On
Versions: 1 2 3 4 5 6 7 8 9 10 11 12 13 14 15 16 17 18 19 20 21 22 23 24 25 26 27 28 29 30 31 32 33 34 35 36 37 38 39 40 41 42 43 44 45 46 47 48 49 50
549
ASUS43 KBIS 110202
RWRND

NORTH DAKOTA REGIONAL WEATHER ROUNDUP
NATIONAL WEATHER SERVICE BISMARCK ND
800 PM CST SAT DEC 10 2016

NOTE: "FAIR" INDICATES FEW OR NO CLOUDS BELOW 12,000 FEET WITH NO
SIGNIFICANT WEATHER AND/OR OBSTRUCTIONS TO VISIBILITY.


NDZ001>003-009>011-017-110300-
NORTHWEST NORTH DAKOTA

CITY           SKY/WX    TMP DP  RH WIND       PRES   REMARKS
WILLISTON      LGT SNOW   3  -2  79 E8        29.94F WCI -10
MINOT          CLOUDY    -4 -10  75 E14       30.05F WCI -24
MINOT AFB      CLOUDY    -6 -11  80 E15       30.06F WCI -27
$$

NDZ018>021-031>035-040>046-110300-
SOUTHWEST NORTH DAKOTA

CITY           SKY/WX    TMP DP  RH WIND       PRES   REMARKS
BISMARCK       FLURRIES  -1  -5  82 E13       30.02F WCI -19
DICKINSON      LGT SNOW  -4  -8  83 E12       29.83F VSB 1   WCI -22
GARRISON         N/A     -2  -7  79 E12       30.00F WCI -20
HETTINGER ARPT CLOUDY    -2  -5  87 E10       29.84F WCI -19
$$

NDZ004>008-012>016-024-026-027-054-110300-
NORTHEAST NORTH DAKOTA

CITY           SKY/WX    TMP DP  RH WIND       PRES   REMARKS
GRAND FORKS    CLOUDY    -5 -10  79 NE5       30.26F WCI -16
GRND FRKS AFB  CLOUDY    -7 -12  78 E5        30.25S WCI -18
DEVILS LAKE    CLOUDY    -5  -9  83 E12       30.15F WCI -23
$$

NDZ022-023-025-028>030-036>039-047>053-110300-
SOUTHEAST NORTH DAKOTA

CITY           SKY/WX    TMP DP  RH WIND       PRES   REMARKS
FARGO          CLOUDY     3  -5  69 E8        30.20F WCI -10
JAMESTOWN      LGT SNOW  -1  -6  79 E9        30.11R WCI -16
$$





USA.gov is the U.S. government's official web portal to all federal, state and local government web resources and services.